Powrót do katalogu

EUTE 7C

AktywnyŁącznośćGEO
NORAD 44334·PAYLOAD·🇪🇺 EU

Wystrzelony Jun 20, 2019 z Guiana Space Centre

Loading…

TLE

ŚwieżeSource: Space-Track

Epoka: Sep 14, 2026, 13:50 UTC

1 44334U 19034B   26257.57648769  .00000040  00000-0  00000-0 0  9993
2 44334   0.0694 178.6886 0003189 337.2733  52.1146  1.00271775  7738

Śledź EUTE 7C w czasie rzeczywistym z AllMySat

Download on the App Store